www.pogodaiklimat.ru

Погода и климат >> Архив погоды >> Франция >> Руанский


ПОГОДА в Руанском

  • Прогноз погоды в Руанском
  • Монитор погоды в Руанском

АРХИВ ПОГОДЫ в Руанском

Время (UTC), дата Ветер
(напр.,м/с)
 
Видим.   Явления Облачность Т
(С)
Тd
(С)
f
(%)
Тe
(С)
Тes
(С)
Комфортность P
(гПа)
Po
(гПа)
Тmin
(С)
Tmax
(С)
R
(мм)
R24
(мм)
S
(см)
22 10.06 Ю 1-1
{2}
3500 м дымка н/о +7.8 +7.2 96 +8 +8 1013.2 994.8
23 10.06 Ю 1-1
{2}
700 м туман н/о +7.0 +6.7 98 +6 +6 1013.1 994.6
00 11.06 Ю 2
{3}
5000 м н/о +7.0 +7.0 100 +4 +4 1012.7 994.2 0
01 11.06 Ю 1-1
{2}
7000 м н/о +6.1 +6.0 99 +5 +5 1012.3 993.8
02 11.06 Ю 1-1
{2}
1100 м дымка н/о +6.0 +6.0 100 +5 +5 1012.1 993.6
03 11.06 ЮВ 2-2
{3}
2600 м дымка н/о +5.6 +5.6 100 +3 +3 1012.2 993.6 0
04 11.06 Ю 1-2
{2}
100 м туман ?/? +6.0 +6.0 100 +5 +5 1012.1 993.6
05 11.06 Ю 1-2
{2}
200 м туман ?/? +6.8 +6.8 100 +6 +6 1012.0 993.5 0.2
06 11.06 Ю 2
{3}
1400 м дымка ?/? +8.2 +8.2 100 +6 +6 1011.7 993.3 +5.3 +11.8 0.2 0
07 11.06 ЮВ 1 13 км н/о +10.8 +10.0 95 +10 +10 1011.5 993.3
08 11.06 ЮВ 2 30 км 8/8 400 м
[]
+13.0 +9.6 80 +13 +14 1011.7 993.6
09 11.06 ЮВ 3
{6}
35 км н/о +15.5 +10.3 71 +15 +15 1011.6 993.7 0
10 11.06 ЮВ 2 19 км 9/8 840 м
[]
+15.4 +10.0 70 +16 +18 1011.7 993.8
11 11.06 ЮВ 2 35 км н/о +17.0 +9.2 60 +17 +17 1011.6 993.8
12 11.06 ЮВ 3
{6}
60 км 8/8 1000 м
[]
+17.4 +9.6 60 +17 +20 1011.5 993.7 0
13 11.06 ЮВ 2 19 км 9/9 1500 м
[]
+15.9 +8.9 63 +16 +18 1011.5 993.6
14 11.06 Ю 2 60 км 9/9 1170 м
[]
+17.3 +8.2 55 +18 +20 1011.3 993.5
15 11.06 ЮВ 1
{6}
55 км 9/9 1000 м
[]
+16.4 +8.1 58 +18 +19 1011.2 993.3 0
16 11.06 В 1 60 км н/о +17.7 +8.0 53 +19 +19 1010.6 992.8
17 11.06 ЮВ 2 55 км 8/4 1380 м
[]
+16.0 +8.0 59 +16 +18 1010.7 992.8
18 11.06 Ю 5
{12}
10 км дождь 9/9 1000 м
[]
+13.5 +9.9 79 +12 +12 1011.6 993.6 +8.3 +18.7 0.2 0
19 11.06 Ю 1 60 км 8/8
[]
+11.7 +10.6 93 +11 +12 1011.5 993.4 0.4
20 11.06 ЮВ 1 14 км слаб. дождь 10/10 2000 м
[]
+11.4 +10.3 93 +11 +11 1011.7 993.5 0.2
21 11.06 СВ 2
{3}
35 км слаб. дождь 10/10 1500 м
[]
+11.7 +10.9 95 +10 +10 1011.4 993.3 0.6 0
22 11.06 СВ 1 40 км 10/10 2000 м
[]
+11.4 +10.6 95 +11 +11 1011.3 993.1 0.2
23 11.06 СВ 1 45 км 10/10 1500 м
[]
+11.1 +10.6 97 +12 +12 1011.1 992.9
00 12.06 СВ 2
{3}
25 км 10/10 1000 м
[]
+10.7 +10.1 96 +10 +10 1010.7 992.5 0.2 0
01 12.06 В 1 19 км 10/10 870 м
[]
+10.1 +9.9 99 +9 +9 1010.3 992.1
02 12.06 В 1 19 км 9/9 800 м
[]
+9.2 +8.6 96 +8 +8 1010.0 991.7
03 12.06 СВ 2-1
{3}
14 км н/о +8.1 +7.8 98 +6 +6 1009.3 991.0 0
04 12.06 В 2-2
{2}
5000 м н/о +7.3 +7.2 99 +5 +5 1009.7 991.3
05 12.06 В 2 1600 м дымка 10/10 30 м
[]
+9.8 +9.8 100 +8 +8 1009.5 991.3
06 12.06 ЮВ 4
{5}
3000 м дымка ?/? +10.2 +10.0 99 +8 +8 1009.7 991.5 +7.1 +13.4 0.2 0
07 12.06 ЮВ 2 5000 м 10/10 90 м
[]
+10.5 +10.3 99 +9 +9 1009.6 991.4
08 12.06 ЮВ 1 6000 м 10/10 60 м
[]
+10.6 +10.4 99 +10 +10 1009.8 991.6
09 12.06 ЮВ 3
{5}
17 км 10/10 200 м
[]
+12.2 +11.1 93 +11 +11 1009.5 991.4 0
10 12.06 ЮВ 3 18 км 10/10 210 м
[]
+11.6 +10.5 93 +10 +10 1009.8 991.7
11 12.06 ЮВ 2 60 км 10/10 540 м
[]
+14.9 +11.1 78 +15 +15 1009.2 991.3
12 12.06 ЮВ 3
{8}
55 км 8/8 600 м
[]
+15.5 +9.6 68 +15 +18 1008.9 991.0 0
13 12.06 ЮВ 2 60 км 9/6 870 м
[]
+16.8 +10.2 65 +17 +22 1008.5 990.7
14 12.06 ЮВ 2 55 км 10/3 930 м
[]
+16.2 +10.7 70 +16 +21 1008.4 990.6
15 12.06 Ю 5
{8}
11 км дождь 10/10 300 м
[]
+12.6 +10.0 84 +10 +10 1008.9 990.9 0.6 0
16 12.06 ЮВ 2 60 км н/о +16.0 +11.8 76 +16 +16 1008.0 990.2 0.6
17 12.06 ЮВ 1 19 км н/о +15.7 +11.9 78 +16 +16 1007.6 989.8
18 12.06 Ю 2
{10}
18 км слаб. дождь 10/10 1000 м
[]
+11.4 +9.8 90 +10 +10 1008.2 990.1 +10.0 +17.6 4 0
19 12.06 ЮВ 1 60 км 10/10 1500 м
[]
+12.1 +11.6 97 +12 +12 1008.5 990.4
20 12.06 Ю 2 19 км слаб. дождь 10/10 2000 м
[]
+11.2 +10.3 94 +10 +10 1008.8 990.7 0.4
21 12.06 Ю 2
{5}
60 км 10/10 600 м
[]
+11.0 +10.5 97 +10 +10 1009.6 991.4 0.6 0
22 12.06 Ю 2 55 км 10/10 1500 м
[]
+11.0 +10.7 98 +10 +10 1009.7 991.5 0.2
23 12.06 ЮЗ 2 55 км 10/5 570 м
[]
+10.9 +10.6 98 +9 +9 1009.8 991.6 0.0
00 13.06 Ю 5
{7}
55 км 10/10 1500 м
[]
+10.6 +10.3 98 +8 +8 1009.9 991.7 0.2 0
01 13.06 Ю 2 40 км 10/3 240 м
[]
+10.4 +10.1 98 +9 +9 1009.8 991.6
02 13.06 Ю 2 30 км 10/10 210 м
[]
+10.4 +10.1 98 +9 +9 1009.9 991.7
03 13.06 Ю 5
{7}
35 км 10/10 200 м
[]
+10.1 +9.8 98 +7 +7 1009.8 991.6 0
04 13.06 Ю 3 30 км 10/10 270 м
[]
+10.5 +10.0 97 +9 +9 1010.0 991.8
05 13.06 Ю 3 19 км 9/9 270 м
[]
+10.5 +9.7 95 +8 +8 1010.2 992.0
06 13.06 Ю 5
{8}
15 км 10/10 200 м
[]
+10.9 +10.1 95 +8 +8 1010.2 992.0 +10.1 +12.1 0
07 13.06 Ю 3 9000 м слаб. дождь 10/10 240 м
[]
+11.3 +10.7 96 +10 +10 1010.4 992.3 0.2
08 13.06 Ю 3 9000 м слаб. дождь 10/10 210 м
[]
+11.5 +11.0 97 +10 +10 1010.4 992.3 0.8
09 13.06 Ю 6
{9}
19 км 10/10 200 м
[]
+12.7 +11.6 93 +10 +10 1010.6 992.5 1 0
10 13.06 Ю 4 11 км 10/9 270 м
[]
+13.4 +12.5 94 +12 +12 1010.5 992.5 0.0
11 13.06 Ю 4 19 км 10/8 540 м
[]
+14.7 +12.0 84 +13 +15 1010.2 992.3 0.0
12 13.06 Ю 9
{14}
60 км 9/9 600 м
[]
+16.0 +11.0 72 +14 +14 1010.1 992.3 0.2 0
13 13.06 ЮЗ 4 60 км 9/1 840 м
[]
+16.9 +10.5 66 +16 +22 1010.0 992.2
14 13.06 ЮЗ 4 60 км 10/9 1140 м
[]
+16.7 +10.3 66 +16 +17 1009.8 992.0
15 13.06 ЮЗ 5
{12}
5000 м 10/10 1000 м
[]
+16.0 +13.3 84 +15 +15 1010.1 992.3 2 0
16 13.06 Ю 4 19 км н/о +17.2 +11.9 71 +17 +17 1010.1 992.3 0.0
17 13.06 ЮЗ 2 12 км 9/9 900 м
[]
+16.6 +11.9 74 +17 +17 1010.1 992.3 0.4
18 13.06 З 4
{10}
60 км 10/10 1000 м
[]
+15.5 +11.3 76 +15 +15 1010.6 992.7 +10.9 +18.4 0.4 0
19 13.06 З 2 60 км 9/9 2000 м
[]
+15.0 +11.2 78 +15 +15 1011.2 993.3
20 13.06 З 2-2
{2}
60 км н/о +12.0 +9.7 86 +11 +11 1011.6 993.5
21 13.06 ЮЗ 3-2
{4}
55 км н/о +10.5 +9.7 95 +9 +9 1012.3 994.1 0
22 13.06 Ю 1-1
{2}
55 км н/о +9.6 +9.0 96 +10 +10 1012.4 994.1
23 13.06 Ю 1-1
{1}
9000 м н/о +8.6 +7.8 95 +8 +8 1012.7 994.3
00 14.06 Ю 2-1
{3}
16 км н/о +8.0 +7.7 98 +6 +6 1012.4 994.0 0
01 14.06 Ю 1-2
{2}
18 км н/о +8.1 +8.1 100 +7 +7 1012.4 994.0
02 14.06 Ю 2 55 км 9/9 1350 м
[]
+9.3 +9.2 99 +8 +8 1012.6 994.3
03 14.06 ЮЗ 3
{4}
60 км 10/10 1500 м
[]
+9.0 +8.7 98 +6 +6 1012.6 994.3 0
04 14.06 Ю 1 60 км 10/10 1500 м
[]
+9.2 +8.7 97 +8 +8 1012.8 994.5
05 14.06 Ю 1 55 км 10/10 1500 м
[]
+9.9 +9.4 97 +9 +9 1013.1 994.8
06 14.06 Ю 3
{4}
55 км 10/10 1500 м
[]
+11.0 +10.1 94 +9 +9 1013.0 994.8 +7.7 +16.4 0
07 14.06 ЮЗ 1 60 км н/о +13.9 +10.9 82 +14 +14 1013.2 995.2
08 14.06 ЮЗ 2-3
{3}
19 км н/о +15.8 +10.1 69 +16 +16 1013.6 995.7
09 14.06 ЮЗ 4-5
{9}
55 км н/о +17.4 +9.8 61 +17 +17 1013.7 995.9 0
10 14.06 ЮЗ 2 19 км н/о +18.4 +10.0 58 +19 +19 1013.9 996.1
11 14.06 Ю 2 60 км н/о +19.0 +10.3 57 +20 +20 1013.8 996.1
12 14.06 Ю 4
{8}
19 км н/о +20.8 +11.1 54 +23 +23 комфорт 1013.5 995.9 0.2 0
13 14.06 Ю 2 18 км 8/3 1470 м
[]
+20.8 +11.1 54 +23 +31 комфорт 1013.1 995.5
14 14.06 Ю 2 55 км н/о +20.4 +8.4 46 +22 +22 комфорт 1012.5 994.9
15 14.06 ЮЗ 3-3
{7}
50 км н/о +21.3 +10.5 50 +23 +23 комфорт 1012.0 994.4 0
16 14.06 ЮЗ 2 50 км н/о +22.0 +11.7 52 +24 +24 комфорт 1011.5 994.0
17 14.06 ЮЗ 1 55 км н/о +21.5 +10.3 49 +23 +23 комфорт 1011.4 993.9
18 14.06 ЮЗ 2
{4}
55 км н/о +21.4 +10.5 50 +23 +23 комфорт 1011.6 994.0 +11.0 +22.4 0
19 14.06 ЮЗ 1 60 км н/о +18.2 +12.0 67 +20 +20 1011.9 994.2
20 14.06 СВ 1 60 км 8/8 1470 м
[]
+16.8 +12.5 76 +18 +18 1012.3 994.5
21 14.06 С 3
{4}
60 км 8/8 1500 м
[]
+15.4 +11.6 78 +15 +15 1012.6 994.7 0
22 14.06 С 2 60 км 10/10
[]
+14.5 +11.3 81 +14 +14 1012.4 994.4
23 14.06 С 1 60 км 10/10
[]
+14.1 +10.9 81 +14 +14 1012.5 994.5
00 15.06 С 2
{3}
60 км 10/0
[]
+13.9 +10.7 81 +13 +13 1012.5 994.5 0
01 15.06 штиль 0 60 км 10/10
[]
+12.5 +10.6 88 +12 +12 1012.7 994.6
02 15.06 ЮЗ 1-1
{1}
55 км н/о +10.6 +9.4 92 +11 +11 1013.0 994.8
03 15.06 З 3
{3}
40 км н/о +9.9 +9.3 96 +8 +8 1013.3 995.0 0
04 15.06 Ю 1 10 км н/о +9.5 +9.0 97 +10 +10 1013.3 995.0
05 15.06 Ю 1 8000 м н/о +11.2 +11.2 100 +11 +11 1013.6 995.4
06 15.06 ЮЗ 3
{4}
10 км н/о +13.3 +11.9 91 +12 +12 1014.4 996.3 +9.4 +21.2 0
07 15.06 З 2-3
{3}
12 км н/о +15.0 +11.4 79 +15 +15 1014.7 996.7
08 15.06 З 3 40 км н/о +16.3 +11.7 74 +16 +16 1015.1 997.2
09 15.06 ЮЗ 5
{7}
40 км 8/8 600 м
[]
+16.8 +11.5 71 +16 +18 1015.5 997.6 0
10 15.06 ЮЗ 3 45 км н/о +18.9 +9.4 54 +20 +20 1015.5 997.7
11 15.06 ЮЗ 3 40 км 10/1 1380 м
[]
+19.5 +9.7 53 +21 +28 комфорт 1015.7 998.0
12 15.06 ЮЗ 5
{7}
45 км 9/9 1000 м
[]
+18.4 +10.2 59 +18 +19 1016.1 998.3 0
13 15.06 ЮЗ 3 55 км 10/6 1300 м
[]
+18.9 +9.9 56 +20 +23 1016.2 998.4
14 15.06 Ю 3 45 км 9/9 1300 м
[]
+17.8 +9.9 60 +18 +19 1016.3 998.4
15 15.06 ЮЗ 4
{11}
50 км 10/10 1500 м
[]
+17.1 +10.5 65 +17 +17 1016.7 998.8 0
16 15.06 Ю 3 19 км 9/1 1170 м
[]
+18.5 +9.8 57 +19 +22 1016.3 998.5
17 15.06 ЮЗ 4 45 км н/о +18.4 +10.2 59 +19 +19 1016.1 998.3
18 15.06 ЮЗ 7
{11}
45 км 8/0 2000 м
[]
+17.9 +10.5 62 +17 +18 1016.4 998.6 +13.3 +21.1 0
19 15.06 ЮЗ 3 55 км 10/1 1200 м
[]
+17.0 +10.6 66 +17 +17 1016.6 998.7
20 15.06 ЮЗ 3 19 км 10/10 1020 м
[]
+16.3 +10.8 70 +16 +16 1017.2 999.2
21 15.06 ЮЗ 6
{10}
60 км 10/10 600 м
[]
+15.1 +11.1 77 +13 +13 1017.9 999.9 0
22 15.06 Ю 3 50 км н/о +13.6 +11.5 87 +13 +13 1018.0 999.9
23 15.06 Ю 2 40 км н/о +13.0 +11.4 90 +12 +12 1018.3 1000.1
00 16.06 Ю 5
{6}
35 км н/о +12.9 +11.6 92 +11 +11 1018.3 1000.1 0
01 16.06 Ю 3 19 км 8/8 480 м
[]
+12.9 +12.0 94 +12 +12 1018.3 1000.1
02 16.06 Ю 3 35 км 10/10 900 м
[]
+13.4 +12.0 91 +12 +12 1018.7 1000.5
03 16.06 Ю 4
{8}
19 км 9/9 300 м
[]
+13.0 +11.6 91 +11 +11 1019.1 1000.9 0
04 16.06 Ю 1 15 км 9/9 450 м
[]
+12.3 +11.7 96 +12 +12 1019.4 1001.2
05 16.06 Ю 2 19 км 10/8 270 м
[]
+13.6 +12.5 93 +13 +13 1019.6 1001.4
06 16.06 ЮЗ 4
{9}
8000 м 10/10 200 м
[]
+13.7 +12.8 94 +12 +12 1020.1 1001.9 +12.2 +18.0 0.0 0
07 16.06 Ю 2 30 км 10/10 360 м
[]
+14.8 +13.2 90 +14 +14 1020.4 1002.3 0.0
08 16.06 Ю 3 23 км 10/10 480 м
[]
+16.8 +12.7 77 +17 +17 1020.5 1002.5
09 16.06 ЮЗ 4
{8}
60 км 10/10 600 м
[]
+18.2 +13.1 72 +18 +18 1020.5 1002.6 0.0 0
10 16.06 ЮЗ 2 15 км 9/9 800 м
[]
+18.1 +14.4 79 +19 +20 1020.6 1002.7 0.2
11 16.06 ЮЗ 3 60 км 10/8 800 м
[]
+19.5 +13.9 70 +21 +23 комфорт 1020.5 1002.7
12 16.06 Ю 6
{9}
18 км 9/9 600 м
[]
+18.9 +13.1 69 +19 +20 1020.4 1002.6 0.2 0
13 16.06 ЮЗ 3 45 км 10/6 1000 м
[]
+20.5 +13.7 65 +23 +26 комфорт 1020.4 1002.7
14 16.06 Ю 4 19 км н/о +21.0 +13.7 63 +24 +24 комфорт 1020.4 1002.7
15 16.06 ЮЗ 5
{10}
35 км 8/8 1000 м
[]
+21.4 +13.1 59 +24 +25 комфорт 1020.3 1002.6 0
16 16.06 ЮЗ 3 55 км 9/5 1170 м
[]
+20.4 +13.1 63 +23 +25 комфорт 1020.3 1002.6
17 16.06 ЮЗ 2 60 км 9/9 1500 м
[]
+20.7 +11.6 56 +23 +24 комфорт 1020.2 1002.5
18 16.06 З 4
{6}
19 км н/о +20.6 +12.6 60 +23 +23 комфорт 1020.3 1002.6 +13.7 +21.9 0
19 16.06 ЮЗ 1-2
{3}
30 км н/о +20.1 +12.8 63 +23 +23 комфорт 1020.3 1002.5
20 16.06 Ю 1-1
{1}
35 км н/о +15.2 +11.0 76 +16 +16 1020.5 1002.4
21 16.06 Ю 2-1
{3}
35 км н/о +12.9 +11.0 88 +12 +12 1020.8 1002.6 0
22 16.06 Ю 1-1
{2}
35 км н/о +11.7 +10.9 95 +11 +11 1020.8 1002.5
23 16.06 Ю 1-2
{2}
30 км н/о +11.3 +10.5 95 +11 +11 1020.9 1002.6
00 17.06 Ю 2-1
{3}
18 км н/о +11.0 +10.4 96 +10 +10 1020.9 1002.5 0
01 17.06 Ю 1-2
{2}
13 км н/о +10.4 +10.1 98 +10 +10 1020.8 1002.4
02 17.06 ЮВ 1-1
{2}
15 км н/о +10.2 +10.0 99 +10 +10 1020.3 1001.9
03 17.06 Ю 1-1
{2}
11 км н/о +9.9 +9.7 99 +10 +10 1020.2 1001.8 0
04 17.06 ЮВ 1-1
{1}
4700 м дымка н/о +9.3 +9.2 99 +8 +8 1020.2 1001.7
05 17.06 ЮВ 1-1
{1}
10 км н/о +12.0 +12.0 100 +13 +13 1020.4 1002.1
06 17.06 Ю 2
{2}
19 км н/о +13.9 +12.8 93 +14 +14 1020.7 1002.5 +9.2 +20.6 0
07 17.06 ЮВ 1-2
{2}
18 км н/о +16.6 +13.7 83 +17 +17 1020.6 1002.6
08 17.06 Ю 1-1
{1}
16 км н/о +19.0 +13.0 68 +22 +22 комфорт 1020.1 1002.3
09 17.06 Ю 2
{4}
18 км н/о +20.4 +13.6 65 +23 +23 комфорт 1019.6 1001.9 0
10 17.06 Ю 1 19 км 9/9 960 м
[]
+20.2 +13.9 67 +23 +25 комфорт 1019.4 1001.7
11 17.06 ЮЗ 2 18 км н/о +22.5 +13.3 56 +25 +25 комфорт 1018.9 1001.3
12 17.06 Ю 2
{6}
18 км 10/10 1000 м
[]
+23.8 +15.3 59 +27 +27 жарко 1018.4 1000.9 0
13 17.06 ЮЗ 1 19 км н/о +23.9 +13.7 53 +26 +26 жарко 1018.0 1000.5
14 17.06 ЮЗ 1 18 км н/о +25.3 +13.5 48 +27 +27 жарко 1017.4 1000.0
15 17.06 ЮЗ 3
{5}
19 км н/о +24.9 +13.1 48 +27 +27 жарко 1017.0 999.6 0
16 17.06 ЮЗ 3
{6}
60 км н/о +26.4 +13.5 45 +28 +28 жарко 1016.3 999.0
17 17.06 С 3 55 км н/о +24.3 +15.0 56 +27 +27 жарко 1016.1 998.7
18 17.06 С 4
{7}
19 км н/о +21.8 +15.6 68 +25 +25 комфорт 1016.2 998.6 +13.9 +26.6 0
19 17.06 С 2-4
{4}
30 км н/о +17.6 +13.3 76 +18 +18 1016.8 998.9
20 17.06 С 2-3
{4}
30 км н/о +16.3 +12.6 79 +17 +17 1016.9 999.0
21 17.06 С 3-3
{5}
25 км н/о +15.2 +12.5 84 +14 +14 1017.3 999.3 0
22 17.06 С 2-2
{3}
29 км н/о +14.4 +11.5 83 +14 +14 1017.4 999.3

 

Местоположение метеостанции Руанский (Франция): широта 49.38 долгота 1.18 высота над уровнем моря 156 м.

В архиве по умолчанию представлена погода в Руанском за последнюю неделю. Архивные данные за месяц целиком и за предыдущие месяцы, начиная с января 2011 года, Вы можете получить, выбрав интересующий диапазон дат из раскрывающегося списка и нажав кнопку "Ввод!".


*Определитесь, кто Вы:
робот инопланетянин человек

Внимание! Время в таблицах - всемирное. Для получения местного времени необходимо прибавить поправку, которая равна 1 ч.

Смотрите также архив погоды в соседних городах и на ближайших метеорологических станциях:

Погода в Эврё (Франция) (40 км)
Погода в Дьеппе (Франция) (61 км)
Погода в Тусю-ле-Нобле (Франция) (68 км)
Погода в Бове (Франция) (69 км)
Погода в Кормее (Франция) (70 км)
Погода в Довиле (Франция) (73 км)
Погода в Гавр аэропорту (Франция) (81 км)
Погода в Гавре (Франция) (81 км)
Погода в Трапе (Франция) (90 км)
Погода в Аббевилле (Франция) (96 км)

Пояснения к столбцам:

Ветер - указаны скорость ветра в м/с - средняя за 10 мин, порывы в срок и между сроками (в фигурных скобках) и направление, откуда дует ветер: С - северный, СВ - северо-восточный, В - восточный, ЮВ - юго-восточный, Ю - южный, ЮЗ - юго-западный, З - западный, СЗ - северо-западный.
Видимость - горизонтальная дальность видимости в метрах или километрах. При видимости от 1 до 10 км при отсутствии осадков обычно наблюдается дымка, при ухудшении видимости до 1 км и менее - туман. В сухую погоду видимость может ухудшаться дымом, пылью или мглою.
Явления - указаны атмосферные явления, наблюдавшиеся в срок или в последний час перед сроком; фигурными скобками обозначены явления, наблюдавшиеся между сроками (за 1-3 часа до срока); квадратными скобками обозначены град или гололедные отложения с указанием их диаметра в мм.
Облачность - указаны через наклонную черту общая и нижняя облачность в баллах и высота нижней границы облаков в метрах; квадратными скобками обозначены формы облаков: Ci - перистые, Cs - перисто-слоистые, Cc - перисто-кучевые, Ac - высококучевые, As - высокослоистые, Sc - слоисто-кучевые, Ns - слоисто-дождевые, Cu - кучевые, Cb - кучево-дождевые. Подробнее классификацию облаков см. в Атласе облаков (PDF).
T - Температура воздуха - температура, измеренная на высоте 2 м над землей.
Td - Температура точки росы - температура, при понижении до которой содержащийся в воздухе водяной пар достигнет насыщения.
f - Относительная влажность воздуха - влажноcть воздуха, измеренная на высоте 2 м над землей.
Te - Эффективная температура - температура, которую ощущает одетый по сезону человек в тени. Характеристика душности погоды. При расчете учитывается влияние влажности воздуха и скорости ветра на теплоощущения человека.
Tes - Эффективная температура на солнце - температура, которую ощущает человек, с поправкой на солнечный нагрев. Характеристика знойности погоды. Зависит от высоты солнца над горизонтом, облачности и скорости ветра. Ночью, в пасмурную погоду, а также при ветре 12 м/с и более поправка равна нулю.
P - Атмосферное давление - приведенное к уровню моря атмосферное давление.
Po - Атмосферное давление - измеренное на уровне метеостанции атмосферное давление.
Tmin - Минимальная температура - минимум температуры воздуха на высоте 2 м над землей.
Tmax - Максимальная температура - максимум температуры воздуха на высоте 2 м над землей.
R - Количество осадков - Количество выпавших осадков за период времени, мм. При наведении курсора мыши на число - период времени, за который выпало указанное количество осадков.
R24 - Количество осадков - Количество выпавших осадков за 24 часа, мм.
S - Снежный покров - Высота снежного покрова, см. При наведении курсора мыши на число - состояние снежного покрова и степень покрытия местности в баллах.